Regional Weather Roundup
Issued by NWS Albany, NY

Home | Current Version | Previous Version | Text Only | Print | Product List | Glossary On
Versions: 1 2 3 4 5 6 7 8 9 10 11 12 13 14 15 16 17 18 19 20 21 22 23 24 25 26 27 28 29 30 31 32 33 34 35 36 37 38 39 40 41 42 43 44 45 46 47 48 49 50
000
ASUS41 KALY 281810
RWRALY

NEW YORK STATE HOURLY WEATHER ROUNDUP
NATIONAL WEATHER SERVICE ALBANY NY
200 PM EDT TUE JUL 28 2015

NOTE: "FAIR" INDICATES FEW OR NO CLOUDS BELOW 12,000 FEET WITH NO
SIGNIFICANT WEATHER AND/OR NO OBSTRUCTIONS TO VISIBILITY.

NYZ032-033-038>043-046>054-057>066-NYZ062>081-281900-
EAST


CITY           SKY/WX    TMP DP  RH WIND       PRES   REMARKS
ALBANY         MOSUNNY   90  63  40 N9        29.95F HX  91
GLENS FALLS    SUNNY     86  68  54 E7        29.94F
POUGHKEEPSIE   MOSUNNY   90  65  43 NW3       29.95F HX  92
MONTGOMERY     MOSUNNY   91  65  41 VRB6      29.97F HX  93
WHITE PLAINS   MOSUNNY   88  64  44 W6        29.97F
ISLIP          PTSUNNY   86  71  60 S13       29.95S HX  91
NEW YORK CITY  PTSUNNY   92  58  31 NE5       29.95F HX  91
CENTRAL PARK   SUNNY     94  60  32 CALM      29.99S HX  94
$$

NYZ005>009-017-018-044>046-055-056-281900-
CENTRAL


CITY           SKY/WX    TMP DP  RH WIND       PRES   REMARKS
FULTON         SUNNY     87  60  40 NW10      30.00S
SYRACUSE       MOSUNNY   87  66  49 W10       29.99S
ROME           SUNNY     86  66  51 W8        30.00F
ELMIRA         SUNNY     87  62  43 VRB3      30.01F
BINGHAMTON     MOSUNNY   82  63  52 NW8       30.05F
MONTICELLO     MOSUNNY   84  61  45 N3        30.04F
$$

NYZ026>034-041>043-281900-
NORTH


CITY           SKY/WX    TMP DP  RH WIND       PRES   REMARKS
WATERTOWN      SUNNY     81  66  60 W14       29.99S
FORT DRUM      NOT AVBL
MASSENA        SUNNY     88  64  44 W6        29.95S
SARANAC LAKE   MOSUNNY   84  57  39 VRB3      30.00F
PLATTSBURGH    MOSUNNY   81  66  60 SE8       29.95F
$$

NYZ001>004-010>016-019>021-281900-
WEST


CITY           SKY/WX    TMP DP  RH WIND       PRES   REMARKS
NIAGARA FALLS  MOSUNNY   86  64  47 VRB7      30.01S
BUFFALO        MOSUNNY   87  59  38 VRB5      30.02S
DUNKIRK        SUNNY     84  65  52 NW7       30.04S
JAMESTOWN      SUNNY     82  55  39 CALM      30.09R
WELLSVILLE     SUNNY     85  51  31 N5        30.11S
ROCHESTER      MOSUNNY   88  63  43 NW8       30.01F
PENN YAN       SUNNY     87  64  46 N5        30.03F
$$

             KEY
       WCI = WIND CHILL INDEX
       VSB = VISIBILITY
       HX  = HEAT INDEX
$$



USA.gov is the U.S. government's official web portal to all federal, state and local government web resources and services.